Content
SEND FEEDBACK

Daily
Averages
Monthly
Summary
United States of America

HAZELWOOD, MISSOURI


Home > North America > United States > Missouri
Elevation: 174 meters     Latitude: 38 45N     Longitude: 090 22W

WEATHER
 
SELECT A DAY
Number of Records: 196,446;   Date Range: 1/1/95 - 8/12/14
 
SHARE

PRINT THIS DATA

[ ← Previous Day ]
WEATHER ALMANAC - 3 JULY, 2013
[ Next Day → ]
[ °F ]   °C
Weather ElementAverageHighLow
Temperature22.6 °C27.8 °C (3:54 pm)16.7 °C (2:54 am)
Dewpoint15.2 °C16.7 °C (7:54 pm)14.4 °C (5:54 am)
Humidity65 %93 % (2:54 am)44 % (4:54 pm)
Barometer1016.9 hPa1018.6 hPa (8:54 am)1015.6 hPa (5:54 pm)
Wind Speed4.7 km/h11.1 km/h (3:54 pm)
Weather ElementAverage
Visibility16.1 km
Wind DirectionESE (97.8 °)

Weather ElementTotal
Precipitation---
Cooling Degree Days3.9 (Base 18.3)
Growing Degree Days12.3 (Base 10)
Averaged from 23 records on 3 July, 2013
WEATHER CONDITIONS BREAKOUT
WIND DIRECTION BREAKOUT
WEATHER BY HOUR - 3 JULY, 2013
[ °F ]   °C
Local TimeTemperatureDewpointHumidityBarometerVisibilityWind DirectionWind SpeedGust SpeedPrecipitationEventsConditions
1:54 AM17.2 °C15.6 °C90 %1016.6 hPa16.1 kmCalmOvercast
2:54 AM16.7 °C15.6 °C93 %1016.6 hPa14.5 kmCalmClear
3:54 AM16.7 °C15 °C90 %1016.9 hPa16.1 kmCalmMostly Cloudy
4:54 AM16.7 °C15.6 °C93 %1017.3 hPa16.1 kmCalmOvercast
5:54 AM16.7 °C14.4 °C86 %1017.6 hPa16.1 kmWest (280°)5.6 km/hMostly Cloudy
6:54 AM17.2 °C15.6 °C90 %1017.9 hPa16.1 kmCalmMostly Cloudy
7:54 AM18.3 °C14.4 °C78 %1017.9 hPa16.1 kmCalmMostly Cloudy
8:54 AM20.6 °C15.6 °C73 %1018.6 hPa16.1 kmCalmScattered Clouds
9:54 AM22.8 °C15 °C61 %1018.3 hPa16.1 kmSW (230°)9.3 km/hScattered Clouds
10:54 AM23.9 °C15 °C57 %1017.9 hPa16.1 kmCalmScattered Clouds
11:54 AM25.6 °C15 °C52 %1017.9 hPa16.1 kmCalmClear
12:54 PM26.7 °C15.6 °C50 %1017.6 hPa16.1 kmSSW (210°)9.3 km/hScattered Clouds
1:54 PM26.1 °C15 °C50 %1017.3 hPa16.1 kmCalmPartly Cloudy
2:54 PM27.2 °C14.4 °C45 %1016.6 hPa16.1 kmSouth (190°)7.4 km/hClear
3:54 PM27.8 °C15 °C45 %1016.6 hPa16.1 kmSSW (200°)11.1 km/hScattered Clouds
4:54 PM27.8 °C14.4 °C44 %1015.9 hPa16.1 kmCalmScattered Clouds
5:54 PM27.8 °C15 °C45 %1015.6 hPa16.1 kmSSW (200°)11.1 km/hScattered Clouds
6:54 PM26.7 °C16.1 °C52 %1015.6 hPa16.1 kmSSE (150°)7.4 km/hScattered Clouds
7:54 PM25.6 °C16.7 °C58 %1016.3 hPa16.1 kmSSE (150°)9.3 km/hClear
8:54 PM23.9 °C16.1 °C62 %1016.3 hPa16.1 kmSSE (150°)9.3 km/hClear
9:54 PM23.3 °C15 °C59 %1016.9 hPa16.1 kmSouth (170°)11.1 km/hClear
10:54 PM22.8 °C15 °C61 %1017.3 hPa16.1 kmSSE (160°)9.3 km/hClear
11:54 PM22.2 °C14.4 °C61 %1017.3 hPa16.1 kmSSE (160°)7.4 km/hClear
Hourly data recorded from KSUS, located 0 kilometers away from Hazelwood, Missouri







STORIES FROM OUR PARTNERS